Location: Ceske Budejovice
(48.9833°N, 14.4667°E)
Time: 01:40:07
(UTC+01:00)

ISS - Visible Passes

Search period start: 23 January 2019 00:00
Search period end: 02 February 2019 00:00
Orbit: 404 x 411 km, 51.6° (Epoch: 23 January)

Date Brightness Start Highest point End Pass type
(mag) Time Alt. Az. Time Alt. Az. Time Alt. Az.
23 Jan -2.2 18:38:54 10° SSW 18:41:04 24° SSE 18:41:04 24° SSE visible
24 Jan -1.8 17:48:25 10° S 17:50:31 16° SE 17:52:03 12° ESE visible
24 Jan -1.6 19:23:20 10° WSW 19:24:46 24° WSW 19:24:46 24° WSW visible
25 Jan -3.5 18:32:07 10° SW 18:35:18 48° SSE 18:35:40 46° SE visible
26 Jan -2.6 17:41:05 10° SSW 17:44:03 31° SE 17:46:30 13° E visible
26 Jan -2.2 19:17:07 10° W 19:19:13 36° W 19:19:13 36° W visible
27 Jan -3.9 18:25:43 10° WSW 18:29:01 86° SSE 18:30:00 43° ENE visible
27 Jan -0.3 20:02:29 10° W 20:02:43 12° WNW 20:02:43 12° WNW visible
28 Jan -3.5 17:34:24 10° SW 17:37:38 59° SSE 17:40:44 11° ENE visible
28 Jan -2.6 19:10:59 10° W 19:13:26 41° WNW 19:13:26 41° WNW visible
29 Jan -3.6 18:19:29 10° W 18:22:46 64° NNW 18:24:08 31° ENE visible
29 Jan -0.6 19:56:18 10° WNW 19:56:51 14° WNW 19:56:51 14° WNW visible
30 Jan -3.8 17:28:00 10° WSW 17:31:18 83° NNW 17:34:37 10° ENE visible
30 Jan -3.0 19:04:48 10° WNW 19:07:31 45° NW 19:07:31 45° NW visible
31 Jan -3.4 18:13:16 10° W 18:16:31 52° N 18:18:11 25° ENE visible
31 Jan -0.9 19:50:00 10° WNW 19:50:54 17° WNW 19:50:54 17° WNW visible
01 Feb -3.5 18:58:31 10° WNW 19:01:34 56° NNW 19:01:34 56° NNW visible
